Change the Weather History Date:

Saturday, March 2, 2013

  Actual Average (KMOT) Record (KMOT)
Temperature  
Mean Temperature 28 °F 22 °F  
Max Temperature 33 °F 30 °F 52 °F (1934)
Min Temperature 23 °F 14 °F -24 °F (1919)
Degree Days  
Heating Degree Days 37 43  
Month to date heating degree days 86  
Since 1 July heating degree days 6662  
Cooling Degree Days 0 0  
Month to date cooling degree days 0  
Year to date cooling degree days 0  
Moisture  
Dew Point 27 °F    
Average Humidity 97    
Maximum Humidity 100    
Minimum Humidity 87    
Precipitation  
Precipitation 0.00 in 0.01 in 0.50 in (1953)
Month to date precipitation 0.03  
Year to date precipitation 0.94  
Sea Level Pressure  
Sea Level Pressure 30.01 in    
Wind  
Wind Speed 6 mph (WSW)    
Max Wind Speed 14 mph    
Max Gust Speed -    
Visibility 9 miles    
Events Rain    
T = Trace of Precipitation, MM = Missing Value Source: NWS Daily Summary

Daily Weather History Graph

Daily Weather History Graph

Search for Another Location

Airport or City:

Trip Planner

Search our weather history database for the weather conditions in past years. The results will help you decide how hot, cold, wet, or windy it might be!

Date:

Astronomy

Mar. 02, 2013 Rise Set
Actual Time 7:28 AM CST 6:35 PM CST
Civil Twilight 6:57 AM CST 7:07 PM CST
Nautical Twilight 6:21 AM CST 7:43 PM CST
Astronomical Twilight 5:44 AM CST 8:19 PM CST
Moon No Moon Rise 9:30 AM CST (3/2)
Length of Visible Light 12h 10m
Length of Day
11h 07m
Waning Gibbous, 74% of the Moon is Illuminated
Mar 2
Waning Gibbous
Mar 4
Last Quarter
Mar 11
New
Mar 19
First Quarter
Mar 27
Full

Hourly Weather History & Observations

Time (CST) Temp. Windchill Dew Point Humidity Pressure Visibility Wind Dir Wind Speed Gust Speed Precip Events Conditions
12:15 AM 26.6 °F 17.5 °F 26.6 °F 100% 30.07 in 10.0 mi South 9.2 mph - N/A   Overcast
12:35 AM 26.6 °F 19.1 °F 26.6 °F 100% 30.06 in 10.0 mi SSE 6.9 mph - N/A   Mostly Cloudy
12:55 AM 26.6 °F 19.1 °F 26.6 °F 100% 30.05 in 10.0 mi SSE 6.9 mph - N/A   Mostly Cloudy
1:15 AM 26.6 °F 19.1 °F 26.6 °F 100% 30.04 in 10.0 mi SSE 6.9 mph - N/A   Overcast
1:35 AM 26.6 °F 17.5 °F 26.6 °F 100% 30.05 in 10.0 mi South 9.2 mph - N/A   Overcast
1:55 AM 26.6 °F 15.7 °F 26.6 °F 100% 30.05 in 10.0 mi South 12.7 mph - N/A   Overcast
2:15 AM 26.6 °F 16.8 °F 26.6 °F 100% 30.05 in 10.0 mi South 10.4 mph - N/A   Mostly Cloudy
2:35 AM 26.6 °F 16.8 °F 26.6 °F 100% 30.04 in 10.0 mi South 10.4 mph - N/A   Overcast
2:55 AM 28.4 °F 22.2 °F 26.6 °F 93% 30.05 in 10.0 mi SSW 5.8 mph - N/A   Mostly Cloudy
3:15 AM 28.4 °F 19.7 °F 28.4 °F 100% 30.03 in 10.0 mi SSW 9.2 mph - N/A Rain Light Freezing Rain
3:35 AM 28.4 °F 18.0 °F 28.4 °F 100% 30.01 in 10.0 mi SSW 12.7 mph - N/A   Overcast
3:55 AM 28.4 °F 17.5 °F 26.6 °F 93% 30.00 in 10.0 mi SSW 13.8 mph - N/A   Mostly Cloudy
4:15 AM 26.6 °F 16.2 °F 26.6 °F 100% 30.00 in 10.0 mi SSW 11.5 mph - N/A   Scattered Clouds
4:35 AM 26.6 °F 18.2 °F 24.8 °F 93% 30.00 in 10.0 mi SSW 8.1 mph - N/A   Scattered Clouds
4:55 AM 24.8 °F 16.9 °F 24.8 °F 100% 30.00 in 10.0 mi SW 6.9 mph - N/A   Clear
5:15 AM 24.8 °F 15.3 °F 24.8 °F 100% 30.00 in 10.0 mi SW 9.2 mph - N/A   Clear
5:35 AM 23.0 °F - 23.0 °F 100% 30.00 in 10.0 mi Calm Calm - N/A   Clear
6:15 AM 23.0 °F 15.8 °F 23.0 °F 100% 30.01 in 10.0 mi West 5.8 mph - N/A   Clear
6:35 AM 24.8 °F 19.1 °F 23.0 °F 93% 30.01 in 10.0 mi West 4.6 mph - N/A   Clear
6:55 AM 24.8 °F - 24.8 °F 100% 30.00 in 10.0 mi Calm Calm - N/A   Clear
7:15 AM 24.8 °F - 24.8 °F 100% 30.01 in 10.0 mi Calm Calm - N/A   Clear
7:35 AM 24.8 °F 20.5 °F 24.8 °F 100% 30.01 in 10.0 mi WNW 3.5 mph - N/A   Clear
7:55 AM 24.8 °F 20.5 °F 23.0 °F 93% 30.01 in 10.0 mi West 3.5 mph - N/A   Clear
8:15 AM 24.8 °F - 24.8 °F 100% 30.01 in 10.0 mi Calm Calm - N/A   Clear
8:35 AM 23.0 °F 17.0 °F 23.0 °F 100% 30.01 in 10.0 mi WSW 4.6 mph - N/A   Clear
8:55 AM 23.0 °F 14.7 °F 23.0 °F 100% 30.01 in 10.0 mi NW 6.9 mph - N/A   Clear
9:15 AM 24.8 °F 13.4 °F 24.8 °F 100% 30.01 in 10.0 mi NW 12.7 mph - N/A   Clear
9:35 AM 28.4 °F 18.0 °F 26.6 °F 93% 30.02 in 10.0 mi NW 12.7 mph - N/A   Clear
9:55 AM 28.4 °F - 26.6 °F 93% 30.04 in 10.0 mi Calm Calm - N/A   Clear
10:15 AM 28.4 °F 22.2 °F 26.6 °F 93% 30.04 in 10.0 mi NNW 5.8 mph - N/A   Clear
10:35 AM 28.4 °F 23.3 °F 26.6 °F 93% 30.05 in 10.0 mi SW 4.6 mph - N/A   Clear
10:55 AM 28.4 °F 21.2 °F 28.4 °F 100% 30.04 in 10.0 mi NNW 6.9 mph - N/A   Clear
11:15 AM 28.4 °F 23.3 °F 28.4 °F 100% 30.04 in 10.0 mi WNW 4.6 mph - N/A   Clear
11:35 AM 30.2 °F 23.4 °F 28.4 °F 93% 30.03 in 10.0 mi NW 6.9 mph - N/A   Clear
11:55 AM 32.0 °F 27.5 °F 28.4 °F 87% 30.04 in 10.0 mi NW 4.6 mph - N/A   Partly Cloudy
12:15 PM 32.0 °F 27.5 °F 30.2 °F 93% 30.04 in 10.0 mi West 4.6 mph - N/A   Clear
12:35 PM 32.0 °F 26.4 °F 30.2 °F 93% 30.03 in 10.0 mi NW 5.8 mph - N/A   Clear
12:55 PM 32.0 °F 28.7 °F 30.2 °F 93% 30.03 in 10.0 mi NW 3.5 mph - N/A   Clear
1:15 PM 32.0 °F 26.4 °F 30.2 °F 93% 30.03 in 10.0 mi NW 5.8 mph - N/A   Clear
1:35 PM 32.0 °F 26.4 °F 32.0 °F 100% 30.01 in 10.0 mi North 5.8 mph - N/A   Clear
1:55 PM 32.0 °F 28.7 °F 30.2 °F 93% 30.02 in 10.0 mi NW 3.5 mph - N/A   Clear
2:15 PM 33.8 °F 30.8 °F 30.2 °F 87% 30.02 in 10.0 mi NW 3.5 mph - N/A   Clear
2:35 PM 33.8 °F 29.6 °F 30.2 °F 87% 30.02 in 10.0 mi NNW 4.6 mph - N/A   Clear
2:55 PM 32.0 °F 26.4 °F 32.0 °F 100% 30.02 in 10.0 mi NNW 5.8 mph - N/A   Clear
3:15 PM 32.0 °F 26.4 °F 32.0 °F 100% 30.01 in 10.0 mi North 5.8 mph - N/A   Clear
3:35 PM 33.8 °F - 30.2 °F 87% 30.02 in 10.0 mi Calm Calm - N/A   Clear
3:55 PM 33.8 °F 30.8 °F 30.2 °F 87% 30.01 in 10.0 mi North 3.5 mph - N/A   Scattered Clouds
4:15 PM 32.0 °F 27.5 °F 30.2 °F 93% 30.01 in 10.0 mi NNW 4.6 mph - N/A   Scattered Clouds
4:35 PM 32.0 °F 27.5 °F 32.0 °F 100% 30.01 in 10.0 mi North 4.6 mph - N/A   Clear
4:55 PM 32.0 °F 27.5 °F 32.0 °F 100% 30.00 in 10.0 mi North 4.6 mph - N/A   Clear
5:15 PM 32.0 °F 28.7 °F 32.0 °F 100% 30.00 in 10.0 mi ENE 3.5 mph - N/A   Clear
5:35 PM 32.0 °F 28.7 °F 30.2 °F 93% 30.00 in 10.0 mi ESE 3.5 mph - N/A   Clear
5:55 PM 32.0 °F 28.7 °F 32.0 °F 100% 30.00 in 10.0 mi East 3.5 mph - N/A   Clear
6:15 PM 30.2 °F 26.7 °F 30.2 °F 100% 30.00 in 10.0 mi ESE 3.5 mph - N/A   Clear
6:35 PM 28.4 °F - 28.4 °F 100% 30.00 in 10.0 mi Calm Calm - N/A   Clear
6:55 PM 28.4 °F - 28.4 °F 100% 30.00 in 10.0 mi Calm Calm - N/A   Clear
7:15 PM 28.4 °F - 28.4 °F 100% 30.00 in 10.0 mi Calm Calm - N/A   Clear
7:35 PM 28.4 °F - 28.4 °F 100% 29.99 in 10.0 mi Calm Calm - N/A   Clear
7:55 PM 28.4 °F 24.6 °F 28.4 °F 100% 29.98 in 9.0 mi East 3.5 mph - N/A   Clear
8:15 PM 26.6 °F 21.2 °F 26.6 °F 100% 29.98 in 10.0 mi ESE 4.6 mph - N/A   Clear
8:35 PM 26.6 °F 21.2 °F 26.6 °F 100% 29.97 in 7.0 mi East 4.6 mph - N/A   Clear
8:55 PM 26.6 °F 21.2 °F 26.6 °F 100% 29.97 in 8.0 mi ESE 4.6 mph - N/A   Clear
9:15 PM 26.6 °F 20.0 °F 26.6 °F 100% 29.96 in 5.0 mi ESE 5.8 mph - N/A   Clear
9:35 PM 26.6 °F 21.2 °F 26.6 °F 100% 29.96 in 9.0 mi ESE 4.6 mph - N/A   Clear
9:55 PM 26.6 °F 21.2 °F 26.6 °F 100% 29.95 in 7.0 mi East 4.6 mph - N/A   Clear
10:15 PM 26.6 °F 22.6 °F 26.6 °F 100% 29.95 in 6.0 mi East 3.5 mph - N/A   Clear
10:35 PM 24.8 °F 17.9 °F 24.8 °F 100% 29.94 in 5.0 mi ESE 5.8 mph - N/A   Clear
10:55 PM 24.8 °F 17.9 °F 24.8 °F 100% 29.93 in 4.0 mi ESE 5.8 mph - N/A   Partly Cloudy
11:15 PM 24.8 °F 19.1 °F 24.8 °F 100% 29.92 in 4.0 mi East 4.6 mph - N/A   Scattered Clouds
11:35 PM 24.8 °F 17.9 °F 24.8 °F 100% 29.92 in 1.2 mi ESE 5.8 mph - N/A   Overcast